N4RCT Weather Reports


Display with metric or nautical units.
time (UTC)temp
F
wind
direction
speed
MPH
gust
MPH
rain 1hr
in
rain 24hr
in
rain mn
in
humidity
%
barometer
mb
20260510222933 78 86 0.0 0.0 0.00 0.00 0.00 55 1015.0
20260510222431 78 86 0.0 0.0 0.00 0.00 0.00 51 1015.1
20260510221926 79 83 0.0 0.0 0.00 0.00 0.00 52 1014.9
20260510221422 79 83 0.0 0.0 0.00 0.00 0.00 52 1015.0
20260510220919 79 81 1.0 2.0 0.00 0.00 0.00 47 1015.1
20260510220415 79 134 0.0 0.0 0.00 0.00 0.00 50 1015.1
20260510215911 79 88 1.0 1.0 0.00 0.00 0.00 46 1015.3
20260510215409 79 86 0.0 0.0 0.00 0.00 0.00 47 1015.2
20260510214907 79 97 0.0 1.0 0.00 0.00 0.00 46 1015.0
20260510214403 79 78 0.0 0.0 0.00 0.00 0.00 48 1015.1
20260510213900 80 109 0.0 0.0 0.00 0.00 0.00 47 1015.2
20260510213356 80 109 0.0 0.0 0.00 0.00 0.00 44 1015.2
20260510212847 80 118 0.0 1.0 0.00 0.00 0.00 45 1015.1
20260510212344 80 105 0.0 0.0 0.00 0.00 0.00 45 1015.1
20260510211842 80 70 1.0 2.0 0.00 0.00 0.00 44 1015.2
20260510211337 80 107 0.0 0.0 0.00 0.00 0.00 43 1015.1
20260510210832 80 86 0.0 0.0 0.00 0.00 0.00 43 1015.3
20260510210328 80 82 0.0 0.0 0.00 0.00 0.00 42 1015.1
20260510205822 80 97 0.0 0.0 0.00 0.00 0.00 43 1015.1
20260510205318 81 92 0.0 0.0 0.00 0.00 0.00 40 1015.3
20260510204814 81 88 1.0 1.0 0.00 0.00 0.00 43 1015.0
20260510204310 80 86 0.0 0.0 0.00 0.00 0.00 43 1015.2
20260510203807 80 181 1.0 2.0 0.00 0.00 0.00 43 1015.3
20260510203305 81 70 1.0 1.0 0.00 0.00 0.00 46 1015.2
20260510202804 81 71 0.0 0.0 0.00 0.00 0.00 44 1015.1
20260510202300 81 186 1.0 1.0 0.00 0.00 0.00 42 1015.6
20260510201757 81 66 1.0 1.0 0.00 0.00 0.00 42 1015.4
20260510201254 81 141 0.0 0.0 0.00 0.00 0.00 43 1015.3
20260510200751 81 234 1.0 1.0 0.00 0.00 0.00 39 1015.6
20260510200249 82 80 0.0 0.0 0.00 0.00 0.00 42 1015.5
20260510195745 82 77 0.0 1.0 0.00 0.00 0.00 41 1015.5
20260510195242 83 85 1.0 1.0 0.00 0.00 0.00 44 1015.6
20260510194741 83 42 0.0 1.0 0.00 0.00 0.00 45 1015.6
20260510194238 83 238 0.0 1.0 0.00 0.00 0.00 43 1015.5
20260510193734 81 35 0.0 1.0 0.00 0.00 0.00 42 1015.6
20260510193228 81 36 1.0 2.0 0.00 0.00 0.00 40 1015.8
20260510192724 82 207 1.0 1.0 0.00 0.00 0.00 41 1015.6
20260510192220 83 91 1.0 1.0 0.00 0.00 0.00 40 1015.8
20260510191716 82 118 0.0 0.0 0.00 0.00 0.00 44 1015.9
20260510191213 81 70 1.0 1.0 0.00 0.00 0.00 43 1015.8
20260510190710 81 82 0.0 0.0 0.00 0.00 0.00 42 1015.7
20260510190207 81 95 0.0 0.0 0.00 0.00 0.00 41 1015.6
20260510185704 82 89 1.0 2.0 0.00 0.00 0.00 43 1015.8
20260510185203 81 64 0.0 1.0 0.00 0.00 0.00 46 1016.0
20260510184658 81 49 0.0 0.0 0.00 0.00 0.00 47 1015.7
20260510184155 80 52 2.0 2.0 0.00 0.00 0.00 47 1016.0
20260510183650 81 61 3.0 5.0 0.00 0.00 0.00 45 1015.8
20260510183145 82 87 0.0 0.0 0.00 0.00 0.00 48 1016.0
20260510182642 82 95 0.0 0.0 0.00 0.00 0.00 46 1016.2
20260510182137 82 78 0.0 0.0 0.00 0.00 0.00 48 1016.1
20260510181635 80 69 0.0 1.0 0.00 0.00 0.00 50 1016.1
20260510181131 81 79 1.0 1.0 0.00 0.00 0.00 48 1016.2
20260510180627 81 76 0.0 0.0 0.00 0.00 0.00 48 1016.2
20260510180125 81 89 0.0 0.0 0.00 0.00 0.00 51 1016.4
20260510175621 80 87 1.0 1.0 0.00 0.00 0.00 54 1016.3
20260510175116 79 96 0.0 0.0 0.00 0.00 0.00 50 1016.4
20260510174615 79 96 2.0 2.0 0.00 0.00 0.00 49 1016.5
20260510174112 78 99 0.0 0.0 0.00 0.00 0.00 52 1016.5
20260510173607 78 90 0.0 1.0 0.00 0.00 0.00 55 1016.6
20260510173104 79 76 1.0 1.0 0.00 0.00 0.00 54 1016.6
20260510172600 79 82 0.0 0.0 0.00 0.00 0.00 50 1016.6
20260510172056 79 82 1.0 2.0 0.00 0.00 0.00 54 1016.5
20260510171553 79 94 1.0 1.0 0.00 0.00 0.00 60 1016.7
20260510171050 77 94 0.0 0.0 0.00 0.00 0.00 60 1016.6
20260510170546 76 69 2.0 2.0 0.00 0.00 0.00 61 1016.6
20260510170043 77 93 0.0 1.0 0.00 0.00 0.00 66 1016.7
20260510165539 77 90 0.0 0.0 0.00 0.00 0.00 62 1016.8
20260510165035 78 49 0.0 1.0 0.00 0.00 0.00 59 1016.8
20260510164532 77 77 0.0 0.0 0.00 0.00 0.00 55 1016.6
20260510164028 76 95 0.0 0.0 0.00 0.00 0.00 64 1016.7
20260510163519 75 95 0.0 0.0 0.00 0.00 0.00 68 1016.8
20260510163015 75 86 1.0 2.0 0.00 0.00 0.00 65 1016.8
20260510162510 75 86 0.0 0.0 0.00 0.00 0.00 70 1016.9
20260510162007 75 95 0.0 0.0 0.00 0.00 0.00 72 1016.8
20260510161503 73 199 1.0 1.0 0.00 0.00 0.00 77 1016.9
20260510160959 73 188 2.0 2.0 0.00 0.00 0.00 76 1016.8
20260510160451 73 162 0.0 0.0 0.00 0.00 0.00 75 1016.9
20260510155949 74 163 0.0 0.0 0.00 0.00 0.00 79 1017.1
20260510155447 74 172 0.0 0.0 0.00 0.00 0.00 76 1016.9
20260510154943 75 182 0.0 0.0 0.00 0.00 0.00 76 1017.0
20260510154439 73 181 0.0 0.0 0.00 0.00 0.00 78 1017.1
20260510153937 75 181 0.0 0.0 0.00 0.00 0.00 78 1017.0
20260510153435 75 161 1.0 2.0 0.00 0.00 0.00 80 1017.0
20260510152931 75 66 0.0 1.0 0.00 0.00 0.00 78 1017.0
20260510152429 74 173 0.0 0.0 0.00 0.00 0.00 79 1017.0
20260510151925 74 151 0.0 0.0 0.00 0.00 0.00 80 1017.1
20260510151422 74 122 0.0 0.0 0.00 0.00 0.00 79 1016.9
20260510150918 74 157 0.0 0.0 0.00 0.00 0.00 81 1017.2
20260510150415 73 90 1.0 1.0 0.00 0.00 0.00 82 1017.1
20260510145910 72 99 0.0 0.0 0.00 0.00 0.00 83 1017.1
20260510145407 72 150 0.0 1.0 0.00 0.00 0.00 83 1017.2
20260510144904 72 151 0.0 0.0 0.00 0.00 0.00 83 1017.2
20260510144401 71 160 1.0 1.0 0.00 0.00 0.00 85 1017.0
20260510143855 72 146 0.0 0.0 0.00 0.00 0.00 84 1017.0
20260510143351 72 120 0.0 0.0 0.00 0.00 0.00 83 1017.0
20260510142849 71 102 0.0 0.0 0.00 0.00 0.00 85 1017.1
20260510142345 70 166 0.0 0.0 0.00 0.00 0.00 86 1016.9
20260510141842 69 121 0.0 0.0 0.00 0.00 0.00 86 1017.0
20260510141339 68 115 0.0 0.0 0.00 0.00 0.00 89 1017.0
20260510140836 67 97 0.0 0.0 0.00 0.00 0.00 91 1016.8
20260510140332 66 106 0.0 0.0 0.00 0.00 0.00 92 1016.8
20260510135831 66 88 0.0 0.0 0.00 0.00 0.00 92 1016.9
20260510135327 66 99 0.0 0.0 0.00 0.00 0.00 92 1016.9
20260510134825 67 67 1.0 1.0 0.00 0.00 0.00 91 1016.9
20260510134322 67 84 0.0 1.0 0.00 0.00 0.00 91 1016.9
20260510133818 67 109 0.0 0.0 0.00 0.00 0.00 91 1016.9
20260510133314 66 108 0.0 1.0 0.00 0.00 0.00 93 1016.8
20260510132809 64 125 0.0 0.0 0.00 0.00 0.00 97 1017.0
20260510132308 63 124 0.0 0.0 0.00 0.00 0.00 99 1016.7
20260510131804 63 103 0.0 0.0 0.00 0.00 0.00 99 1016.8
20260510131302 62 144 0.0 0.0 0.00 0.00 0.00 99 1016.7
20260510130759 62 112 0.0 0.0 0.00 0.00 0.00 99 1017.0
20260510130255 62 84 1.0 1.0 0.00 0.00 0.00 99 1016.7
20260510125752 62 91 0.0 0.0 0.00 0.00 0.00 99 1016.6
20260510125248 62 130 0.0 0.0 0.00 0.00 0.00 99 1016.5
20260510124745 62 136 0.0 0.0 0.00 0.00 0.00 99 1016.5
20260510124242 62 113 0.0 0.0 0.00 0.00 0.00 99 1016.5
20260510123737 62 124 0.0 0.0 0.00 0.00 0.00 99 1016.5
20260510123234 62 92 0.0 0.0 0.00 0.00 0.00 99 1016.3
20260510122730 62 92 0.0 0.0 0.00 0.00 0.00 99 1016.5
20260510122227 62 114 0.0 0.0 0.00 0.00 0.00 99 1016.3
20260510121723 62 143 0.0 0.0 0.00 0.00 0.00 99 1016.2
20260510121220 62 143 0.0 0.0 0.00 0.00 0.00 99 1016.1
20260510120718 62 80 0.0 0.0 0.00 0.00 0.00 99 1016.1
20260510120214 62 120 0.0 0.0 0.00 0.00 0.00 99 1016.1
20260510115710 62 132 0.0 0.0 0.00 0.00 0.00 99 1016.1
20260510115208 62 136 0.0 0.0 0.00 0.00 0.00 99 1016.0
20260510114703 62 103 0.0 0.0 0.00 0.00 0.00 99 1015.9
20260510114200 61 106 0.0 0.0 0.00 0.00 0.00 99 1015.9
20260510113655 61 107 0.0 0.0 0.00 0.00 0.00 99 1015.9
20260510113152 61 107 0.0 0.0 0.00 0.00 0.00 99 1015.5
20260510112643 60 107 0.0 0.0 0.00 0.00 0.00 99 1015.4
20260510112140 60 105 0.0 0.0 0.00 0.00 0.00 99 1015.4
20260510111636 60 117 0.0 0.0 0.00 0.00 0.00 99 1015.4
20260510111132 60 118 0.0 0.0 0.00 0.00 0.00 99 1015.2
20260510110628 60 117 0.0 0.0 0.00 0.00 0.00 99 1015.1
20260510110125 60 117 0.0 0.0 0.00 0.00 0.00 99 1015.2
20260510105621 60 116 0.0 0.0 0.00 0.00 0.00 99 1015.0
20260510105115 60 133 0.0 0.0 0.00 0.00 0.00 99 1015.1
20260510104612 60 132 0.0 0.0 0.00 0.00 0.00 99 1015.0
20260510104109 59 132 0.0 0.0 0.00 0.00 0.00 99 1014.9
20260510103606 59 132 0.0 0.0 0.00 0.00 0.00 99 1014.7
20260510103102 59 132 0.0 0.0 0.00 0.00 0.00 99 1014.9
20260510102557 59 133 0.0 0.0 0.00 0.00 0.00 99 1014.9
20260510102054 59 133 0.0 0.0 0.00 0.00 0.00 99 1014.7
20260510101551 59 132 0.0 0.0 0.00 0.00 0.00 99 1014.6
20260510101050 59 132 0.0 0.0 0.00 0.00 0.00 99 1014.3
20260510100545 59 132 0.0 0.0 0.00 0.00 0.00 99 1014.4
20260510100043 58 132 0.0 0.0 0.00 0.00 0.00 99 1014.4
20260510095539 58 132 0.0 0.0 0.00 0.00 0.00 99 1014.4
20260510095038 58 132 0.0 0.0 0.00 0.00 0.00 99 1014.5
20260510094533 58 132 0.0 0.0 0.00 0.00 0.00 99 1014.1
20260510094029 57 132 0.0 0.0 0.00 0.00 0.00 99 1014.1
20260510093524 57 132 0.0 0.0 0.00 0.00 0.00 99 1014.2
20260510093022 57 114 0.0 0.0 0.00 0.00 0.00 99 1014.3
20260510092519 57 120 0.0 0.0 0.00 0.00 0.00 99 1014.1
20260510092018 57 115 0.0 0.0 0.00 0.00 0.00 99 1014.2
20260510091515 57 111 0.0 0.0 0.00 0.00 0.00 99 1014.1
20260510091011 57 110 0.0 0.0 0.00 0.00 0.00 99 1014.1
20260510090509 57 103 0.0 0.0 0.00 0.00 0.00 99 1013.7
20260510090004 57 97 0.0 0.0 0.00 0.00 0.00 99 1013.7
20260510085459 56 97 0.0 0.0 0.00 0.00 0.00 99 1013.8
20260510084955 56 97 0.0 0.0 0.00 0.00 0.00 99 1013.7
20260510084452 57 97 0.0 0.0 0.00 0.00 0.00 99 1013.7
20260510083949 57 97 0.0 0.0 0.00 0.00 0.00 99 1013.8
20260510083445 57 97 0.0 0.0 0.00 0.00 0.00 99 1013.5
20260510082941 57 97 0.0 0.0 0.00 0.00 0.00 99 1013.3
20260510082439 57 97 0.0 0.0 0.00 0.00 0.00 99 1013.3
20260510081938 57 97 0.0 0.0 0.00 0.00 0.00 99 1013.3
20260510081434 57 97 0.0 0.0 0.00 0.00 0.00 99 1013.2
20260510080930 57 97 0.0 0.0 0.00 0.00 0.00 99 1013.3
20260510080429 57 97 0.0 0.0 0.00 0.00 0.00 99 1013.1
20260510075926 57 97 0.0 0.0 0.00 0.00 0.00 99 1013.2
20260510075424 58 97 0.0 0.0 0.00 0.00 0.00 99 1013.2
20260510074921 58 97 0.0 0.0 0.00 0.00 0.00 99 1013.1
20260510074418 58 97 0.0 0.0 0.00 0.00 0.00 99 1013.2
20260510073914 58 97 0.0 0.0 0.00 0.00 0.00 99 1013.0
20260510073409 58 97 0.0 0.0 0.00 0.00 0.00 99 1013.3
20260510072906 58 97 0.0 0.0 0.00 0.00 0.00 99 1013.3
20260510072403 58 97 0.0 0.0 0.00 0.00 0.00 99 1013.1
20260510071858 58 97 0.0 0.0 0.00 0.00 0.00 99 1013.1
20260510071355 58 97 0.0 0.0 0.00 0.00 0.00 99 1013.0
20260510070854 58 97 0.0 0.0 0.00 0.00 0.00 99 1013.1
20260510070350 58 97 0.0 0.0 0.00 0.00 0.00 99 1013.2
20260510065850 58 97 0.0 0.0 0.00 0.00 0.00 99 1013.1
20260510065348 58 99 0.0 0.0 0.00 0.00 0.00 99 1013.2
20260510064844 58 99 0.0 0.0 0.00 0.00 0.00 99 1013.2
20260510064342 58 99 0.0 0.0 0.00 0.00 0.00 99 1013.0
20260510063838 58 99 0.0 0.0 0.00 0.00 0.00 99 1013.1
20260510063335 58 99 0.0 0.0 0.00 0.00 0.00 99 1013.2
20260510062832 58 99 0.0 0.0 0.00 0.00 0.00 99 1013.3
20260510062327 59 99 0.0 0.0 0.00 0.00 0.00 99 1013.1
20260510061822 59 99 0.0 0.0 0.00 0.00 0.00 99 1013.2
20260510061320 59 99 0.0 0.0 0.00 0.00 0.00 99 1013.1
20260510060815 59 99 0.0 0.0 0.00 0.00 0.00 99 1013.1
20260510060313 59 99 0.0 0.0 0.00 0.00 0.00 99 1013.1
20260510055809 59 99 0.0 0.0 0.00 0.00 0.00 99 1013.1
20260510055308 59 99 0.0 0.0 0.00 0.00 0.00 99 1013.2
20260510054807 59 99 0.0 0.0 0.00 0.00 0.00 99 1013.1
20260510054303 60 98 0.0 0.0 0.00 0.00 0.00 99 1013.1
20260510053758 60 101 0.0 0.0 0.00 0.00 0.00 99 1013.6
20260510053254 60 101 0.0 0.0 0.00 0.00 0.00 99 1013.3
20260510052750 60 101 0.0 0.0 0.00 0.00 0.00 99 1013.3
20260510052246 60 100 0.0 0.0 0.00 0.00 0.00 99 1013.2
20260510051742 60 101 0.0 0.0 0.00 0.00 0.00 99 1013.2
20260510051239 60 103 0.0 0.0 0.00 0.00 0.00 99 1013.6
20260510050736 60 104 0.0 0.0 0.00 0.00 0.00 99 1013.6
20260510050233 60 106 0.0 0.0 0.00 0.00 0.00 99 1013.6
20260510045730 61 107 0.0 0.0 0.00 0.00 0.00 99 1013.7
20260510045226 61 107 0.0 0.0 0.00 0.00 0.00 99 1013.8
20260510044722 61 107 0.0 0.0 0.00 0.00 0.00 99 1013.5
20260510044221 61 106 0.0 0.0 0.00 0.00 0.00 99 1013.7
20260510043716 62 107 0.0 0.0 0.00 0.00 0.00 99 1013.7
20260510043213 62 107 0.0 0.0 0.00 0.00 0.00 99 1013.7
20260510042710 62 107 0.0 0.0 0.00 0.00 0.00 99 1013.7
20260510042206 62 108 0.0 0.0 0.00 0.00 0.00 99 1013.8
20260510041703 62 108 0.0 0.0 0.00 0.00 0.00 99 1013.8
20260510041200 62 119 0.0 0.0 0.00 0.00 0.00 99 1013.8
20260510040657 62 96 0.0 0.0 0.00 0.00 0.00 99 1013.9
20260510040154 62 96 0.0 0.0 0.00 0.00 0.00 99 1013.8
20260510035650 62 96 0.0 0.0 0.00 0.00 0.00 99 1013.8
20260510035145 62 95 0.0 0.0 0.00 0.00 0.00 99 1013.8
20260510034642 62 101 0.0 0.0 0.00 0.00 0.00 99 1014.0
20260510034139 62 136 0.0 0.0 0.00 0.00 0.00 99 1013.7
20260510033635 62 136 0.0 0.0 0.00 0.00 0.00 99 1013.8
20260510033133 62 129 0.0 0.0 0.00 0.00 0.00 99 1014.0
20260510032629 62 141 0.0 0.0 0.00 0.00 0.00 99 1013.7
20260510032125 62 133 0.0 0.0 0.00 0.00 0.00 99 1013.6
20260510031620 62 150 0.0 0.0 0.00 0.00 0.00 99 1013.6
20260510031117 62 92 0.0 0.0 0.00 0.00 0.00 99 1013.3
20260510030611 62 92 0.0 0.0 0.00 0.00 0.00 99 1013.5
20260510030109 62 92 0.0 0.0 0.00 0.00 0.00 99 1013.2
20260510025606 62 92 0.0 0.0 0.00 0.00 0.00 98 1013.2
20260510025104 62 94 0.0 0.0 0.00 0.00 0.00 99 1013.2
20260510024600 63 93 0.0 0.0 0.00 0.00 0.00 99 1012.9
20260510024057 63 104 0.0 0.0 0.00 0.00 0.00 99 1013.1
20260510023553 63 104 0.0 0.0 0.00 0.00 0.00 99 1013.1
20260510023051 62 107 0.0 0.0 0.00 0.00 0.00 99 1012.9
20260510022549 62 120 0.0 0.0 0.00 0.00 0.00 98 1012.9
20260510022044 63 130 0.0 0.0 0.00 0.00 0.00 98 1012.9
20260510021541 63 109 0.0 0.0 0.00 0.00 0.00 98 1012.8
20260510021039 63 109 0.0 0.0 0.00 0.00 0.00 98 1012.7
20260510020538 63 109 0.0 0.0 0.00 0.00 0.00 98 1012.8
20260510020034 63 109 0.0 0.0 0.00 0.00 0.00 98 1012.4
20260510015530 64 109 0.0 0.0 0.00 0.00 0.00 98 1012.4
20260510015026 64 109 0.0 0.0 0.00 0.00 0.00 98 1012.3
20260510014523 64 110 0.0 0.0 0.00 0.00 0.00 98 1012.3
20260510014020 64 110 0.0 0.0 0.00 0.00 0.00 97 1012.2
20260510013515 64 118 0.0 0.0 0.00 0.00 0.00 97 1012.2
20260510013011 64 110 0.0 0.0 0.00 0.00 0.00 97 1012.0
20260510012505 64 109 0.0 0.0 0.00 0.00 0.00 97 1011.9
20260510012001 64 110 0.0 0.0 0.00 0.00 0.00 97 1011.9
20260510011455 64 119 0.0 0.0 0.00 0.00 0.00 97 1012.0
20260510010951 65 132 0.0 0.0 0.00 0.00 0.00 97 1011.9
20260510010449 65 129 0.0 0.0 0.00 0.00 0.00 96 1012.0
20260510005946 65 124 0.0 0.0 0.00 0.00 0.00 96 1011.8
20260510005442 66 124 0.0 0.0 0.00 0.00 0.00 95 1011.7
20260510004939 66 124 0.0 0.0 0.00 0.00 0.00 95 1011.7
20260510004436 66 124 0.0 0.0 0.00 0.00 0.00 95 1011.7
20260510003934 66 124 0.0 0.0 0.00 0.00 0.00 94 1011.7
20260510003431 66 124 0.0 0.0 0.00 0.00 0.00 93 1011.6
20260510002930 67 124 0.0 0.0 0.00 0.00 0.00 93 1011.6
20260510002427 67 124 0.0 0.0 0.00 0.00 0.00 93 1011.6
20260510001924 67 124 0.0 0.0 0.00 0.00 0.00 93 1011.5
20260510001421 68 124 0.0 0.0 0.00 0.00 0.00 92 1011.4
20260510000918 68 122 0.0 0.0 0.00 0.00 0.00 91 1011.6
20260510000411 68 121 0.0 0.0 0.00 0.00 0.00 89 1011.4
20260509235906 69 122 0.0 0.0 0.00 0.00 0.00 87 1011.4
20260509235403 69 122 0.0 0.0 0.00 0.00 0.00 85 1011.3
20260509234858 70 122 0.0 0.0 0.00 0.00 0.00 84 1011.2
20260509234356 70 121 0.0 0.0 0.00 0.00 0.00 83 1011.1
20260509233854 70 121 0.0 0.0 0.00 0.00 0.00 83 1011.2
20260509233351 71 121 0.0 0.0 0.00 0.00 0.00 82 1011.2
20260509232846 71 121 0.0 0.0 0.00 0.00 0.00 82 1011.5
20260509232345 71 121 0.0 0.0 0.00 0.00 0.00 81 1011.5
20260509231841 71 110 0.0 0.0 0.00 0.00 0.00 82 1011.1
20260509231338 72 110 0.0 0.0 0.00 0.00 0.00 81 1011.0
20260509230836 72 110 0.0 0.0 0.00 0.00 0.00 80 1011.0
20260509230332 72 110 0.0 0.0 0.00 0.00 0.00 79 1010.9
20260509225827 72 110 0.0 0.0 0.00 0.00 0.00 78 1010.9
20260509225325 73 110 0.0 0.0 0.00 0.00 0.00 79 1011.0
20260509224821 73 110 0.0 0.0 0.00 0.00 0.00 78 1011.1
20260509224317 73 110 0.0 0.0 0.00 0.00 0.00 77 1010.9
20260509223814 73 110 0.0 0.0 0.00 0.00 0.00 76 1010.8